Tracking 19817 objects as of 18-Aug-2019
HD Live streaming from Space Station
objects crossing your sky now

USA 12

Track USA 12 now!
USA 12 is classified as:


NORAD ID: 16117
Int'l Code: 1985-092C
Perigee: 36,127.4 km
Apogee: 36,184.6 km
Inclination: 15.3 °
Period: 1,454.6 minutes
Semi major axis: 42527 km
RCS: Unknown
Launch date: October 3, 1985
Source: United States (US)
Launch site: AIR FORCE EASTERN TEST RANGE (AFETR)
aabbcc
Your satellite tracking list
Your tracking list is empty




NASA's NSSDC Master Catalog

Two Line Element Set (TLE):
1 16117U 85092C   19228.68474117 -.00000294  00000-0  00000+0 0  9995
2 16117  15.3278   6.2385 0006730  37.5847 322.5080  0.98993221   999
Source of the keplerian elements: McCants